This is the latest recevied weather packets stored in our database for station/object KE5QKR. If no packets are shown the sender has not sent any weather packets the latest 10 day(s).
| Time | Temp. | Humidity | Pressure | Rain* | Wind** | Luminosity | Snow |
|---|---|---|---|---|---|---|---|
| 1777779355 | 13.89° C | 73% | 1017.6 hPa | 0 mm | - | 0 W/m² | - |
| 1777779053 | 13.89° C | 73% | 1017.7 hPa | 0 mm | - | 0 W/m² | - |
| 1777778751 | 13.33° C | 74% | 1017.4 hPa | 0 mm | - | 0 W/m² | - |
| 1777778449 | 12.22° C | 82% | 1017.5 hPa | 0 mm | - | 0 W/m² | - |
| 1777778146 | 11.67° C | 89% | 1017.5 hPa | 0 mm | - | 0 W/m² | - |
| 1777777843 | 11.67° C | 89% | 1017.6 hPa | 0 mm | - | 0 W/m² | - |
| 1777777539 | 11.67° C | 86% | 1017.4 hPa | 0 mm | - | 0 W/m² | - |
| 1777777237 | 11.67° C | 87% | 1017.4 hPa | 0 mm | - | 0 W/m² | - |
| 1777776933 | 11.67° C | 86% | 1017.7 hPa | 0 mm | - | 0 W/m² | - |
| 1777776631 | 12.22° C | 86% | 1017.4 hPa | 0 mm | - | 0 W/m² | - |
| 1777776327 | 12.78° C | 86% | 1017.3 hPa | 0 mm | - | 0 W/m² | - |
| 1777775721 | 13.33° C | 81% | 1017 hPa | 0 mm | - | 0 W/m² | - |
| 1777775419 | 14.44° C | 77% | 1016.9 hPa | 0 mm | - | 0 W/m² | - |
| 1777775114 | 15° C | 70% | 1016.6 hPa | 0 mm | - | 0 W/m² | - |
| 1777773597 | 16.11° C | 61% | 1016.6 hPa | 0 mm | - | 0 W/m² | - |
| 1777773294 | 16.11° C | 61% | 1016.4 hPa | 0 mm | - | 0 W/m² | - |
| 1777770264 | 17.78° C | 55% | 1015.8 hPa | 0 mm | - | 0 W/m² | - |
| 1777769052 | 18.33° C | 53% | 1015.4 hPa | 0 mm | - | 1 W/m² | - |
| 1777767233 | 19.44° C | 51% | 1014.5 hPa | 0 mm | - | 14 W/m² | - |
| 1777766931 | 20° C | 50% | 1014.6 hPa | 0 mm | - | 16 W/m² | - |
| 1777766325 | 20° C | 48% | 1014.5 hPa | 0 mm | - | 21 W/m² | - |
| 1777766022 | 20° C | 49% | 1014.5 hPa | 0 mm | - | 23 W/m² | - |
| 1777764808 | 20.56° C | 44% | 1014.2 hPa | 0 mm | - | 31 W/m² | - |
| 1777764201 | 20.56° C | 44% | 1014.1 hPa | 0 mm | - | 32 W/m² | - |
| 1777762082 | 21.11° C | 41% | 1014 hPa | 0 mm | - | 67 W/m² | - |
* Rain latest hour (hover to see other rain measurements)
** Current wind speed in m/s (hover to see current wind gust speed)